Location: York
(31.8935°S, 116.7682°E)
Time: 12:30:30
(UTC+08:00)

deb Explorer IX - Pass Details

Date: 03 October 2022
Orbit: 533 x 1057 km, 38.8° (Epoch: 01 December)

Event Time Altitude Azimuth Distance (km) Brightness Sun altitude
Rises 00:55:06 0° 255° (WSW) 2,879 - -52.2°
Reaches altitude 10° 00:57:47 10° 267° (W) 1,902 - -52.0°
Maximum altitude 01:01:22 25° 323° (NW) 1,122 - -51.7°
Drops below altitude 10° 01:04:45 10° 20° (NNE) 1,785 - -51.4°
Sets 01:07:11 0° 34° (NNE) 2,661 - -51.1°
